Location: Baix
(44.7118°N, 4.7648°E)
Time: 10:40:47
(UTC+00:00)

Vanguard 2 Rocket - Pass Details

Date: 01 December 2020
Orbit: 554 x 3325 km, 32.9° (Epoch: 21 January)

Event Time Altitude Azimuth Distance (km) Brightness Sun altitude
Rises 08:43:03 0° 253° (WSW) 7,181 11.2 13.3°
Reaches altitude 10° 08:47:54 10° 250° (WSW) 6,257 11.0 13.8°
Maximum altitude 09:07:19 56° 180° (S) 3,420 10.6 15.8°
Drops below altitude 10° 09:21:50 10° 108° (ESE) 4,826 11.5 17.2°
Sets 09:25:01 0° 104° (ESE) 5,515 11.6 17.5°
